owner,sensor,date,latitude,longitude,vertical_datum,direction_of_sea_water_velocity,sea_water_speed,upward_sea_water_velocity,qcFlag 
TABS,ioos:station:wmo:42044:1,1999-10-01T00:00:00Z,26.1914,-97.0507,2.0,181.3596682,43.82234248,-99999.0,'11111222,11111222,99999999' 
TABS,ioos:station:wmo:42044:1,1999-10-01T00:30:00Z,26.1914,-97.0507,2.0,183.3097049,46.41743207,-99999.0,'11111222,11111222,99999999' 
TABS,ioos:station:wmo:42044:1,1999-10-01T01:00:00Z,26.1914,-97.0507,2.0,183.6885103,41.65629964,-99999.0,'11111222,11111222,99999999' 
TABS,ioos:station:wmo:42044:1,1999-10-01T01:30:00Z,26.1914,-97.0507,2.0,182.2190207,42.35176502,-99999.0,'11111222,11111222,99999999' 
TABS,ioos:station:wmo:42044:1,1999-10-01T02:00:00Z,26.1914,-97.0507,2.0,182.0025058,42.63604344,-99999.0,'11111222,11111222,99999999' 
TABS,ioos:station:wmo:42044:1,1999-10-01T02:30:00Z,26.1914,-97.0507,2.0,181.4535398,40.99319456,-99999.0,'11111222,11111222,99999999' 
TABS,ioos:station:wmo:42044:1,1999-10-01T03:00:00Z,26.1914,-97.0507,2.0,177.5605407,42.05810861,-99999.0,'11111222,11111222,99999999' 
TABS,ioos:station:wmo:42044:1,1999-10-01T03:30:00Z,26.1914,-97.0507,2.0,179.409269,43.66231899,-99999.0,'11111222,11111222,99999999' 
TABS,ioos:station:wmo:42044:1,1999-10-01T04:00:00Z,26.1914,-97.0507,2.0,177.9470116,41.59669458,-99999.0,'11111222,11111222,99999999' 
TABS,ioos:station:wmo:42044:1,1999-10-01T04:30:00Z,26.1914,-97.0507,2.0,181.3057397,39.05014341,-99999.0,'11111222,11111222,99999999' 
TABS,ioos:station:wmo:42044:1,1999-10-01T05:00:00Z,26.1914,-97.0507,2.0,183.0759741,38.94611919,-99999.0,'11111222,11111222,99999999' 
TABS,ioos:station:wmo:42044:1,1999-10-01T05:30:00Z,26.1914,-97.0507,2.0,179.9997895,41.42,-99999.0,'11111222,11111222,99999999' 
TABS,ioos:station:wmo:42044:1,1999-10-01T06:00:00Z,26.1914,-97.0507,2.0,180.6312369,40.83247972,-99999.0,'11111222,11111222,99999999' 
TABS,ioos:station:wmo:42044:1,1999-10-01T06:30:00Z,26.1914,-97.0507,2.0,184.4321196,40.50112714,-99999.0,'11111222,11111222,99999999' 
TABS,ioos:station:wmo:42044:1,1999-10-01T07:00:00Z,26.1914,-97.0507,2.0,177.3564131,42.0647596,-99999.0,'11111222,11111222,99999999' 
TABS,ioos:station:wmo:42044:1,1999-10-01T07:30:00Z,26.1914,-97.0507,2.0,179.5741239,40.3811144,-99999.0,'11111222,11111222,99999999' 
TABS,ioos:station:wmo:42044:1,1999-10-01T08:00:00Z,26.1914,-97.0507,2.0,181.4973738,39.79359245,-99999.0,'11111222,11111222,99999999' 
TABS,ioos:station:wmo:42044:1,1999-10-01T08:30:00Z,26.1914,-97.0507,2.0,178.909698,38.89703973,-99999.0,'11111222,11111222,99999999' 
TABS,ioos:station:wmo:42044:1,1999-10-01T09:00:00Z,26.1914,-97.0507,2.0,181.5375583,38.75395722,-99999.0,'11111222,11111222,99999999' 
TABS,ioos:station:wmo:42044:1,1999-10-01T09:30:00Z,26.1914,-97.0507,2.0,180.2134188,40.23027964,-99999.0,'11111222,11111222,99999999' 
TABS,ioos:station:wmo:42044:1,1999-10-01T10:00:00Z,26.1914,-97.0507,2.0,182.635091,38.9311726,-99999.0,'11111222,11111222,99999999' 
TABS,ioos:station:wmo:42044:1,1999-10-01T10:30:00Z,26.1914,-97.0507,2.0,179.3393925,39.04259341,-99999.0,'11111222,11111222,99999999' 
TABS,ioos:station:wmo:42044:1,1999-10-01T11:00:00Z,26.1914,-97.0507,2.0,180.4367077,39.34114386,-99999.0,'11111222,11111222,99999999' 
TABS,ioos:station:wmo:42044:1,1999-10-01T11:30:00Z,26.1914,-97.0507,2.0,179.5561047,38.74116157,-99999.0,'11111222,11111222,99999999' 
TABS,ioos:station:wmo:42044:1,1999-10-01T12:00:00Z,26.1914,-97.0507,2.0,180.6891424,37.40270712,-99999.0,'11111222,11111222,99999999' 
TABS,ioos:station:wmo:42044:1,1999-10-01T12:30:00Z,26.1914,-97.0507,2.0,183.9879337,38.53331027,-99999.0,'11111222,11111222,99999999' 
TABS,ioos:station:wmo:42044:1,1999-10-01T13:00:00Z,26.1914,-97.0507,2.0,180.2361564,36.3603094,-99999.0,'11111222,11111222,99999999' 
TABS,ioos:station:wmo:42044:1,1999-10-01T13:30:00Z,26.1914,-97.0507,2.0,171.1277613,32.87332201,-99999.0,'11111222,11111222,99999999' 
TABS,ioos:station:wmo:42044:1,1999-10-01T14:00:00Z,26.1914,-97.0507,2.0,179.7634227,36.3603094,-99999.0,'11111222,11111222,99999999' 
TABS,ioos:station:wmo:42044:1,1999-10-01T14:30:00Z,26.1914,-97.0507,2.0,177.0958494,32.37156932,-99999.0,'11111222,11111222,99999999' 
TABS,ioos:station:wmo:42044:1,1999-10-01T15:00:00Z,26.1914,-97.0507,2.0,173.8782397,33.57142833,-99999.0,'11111222,11111222,99999999' 
TABS,ioos:station:wmo:42044:1,1999-10-01T15:30:00Z,26.1914,-97.0507,2.0,178.7240817,33.23823852,-99999.0,'11111222,11111222,99999999' 
TABS,ioos:station:wmo:42044:1,1999-10-01T16:00:00Z,26.1914,-97.0507,2.0,181.3629848,37.41058807,-99999.0,'11111222,11111222,99999999' 
TABS,ioos:station:wmo:42044:1,1999-10-01T16:30:00Z,26.1914,-97.0507,2.0,182.4427632,38.47496849,-99999.0,'11111222,11111222,99999999' 
TABS,ioos:station:wmo:42044:1,1999-10-01T17:00:00Z,26.1914,-97.0507,2.0,200.615211,50.78184026,-99999.0,'11111222,11111222,99999999' 
TABS,ioos:station:wmo:42044:1,1999-10-01T17:30:00Z,26.1914,-97.0507,2.0,185.1893567,42.78538302,-99999.0,'11111222,11111222,99999999' 
TABS,ioos:station:wmo:42044:1,1999-10-01T18:00:00Z,26.1914,-97.0507,2.0,196.955701,41.90148923,-99999.0,'11111222,11111222,99999999' 
TABS,ioos:station:wmo:42044:1,1999-10-01T18:30:00Z,26.1914,-97.0507,2.0,199.0490462,43.35415666,-99999.0,'11111222,11111222,99999999' 
TABS,ioos:station:wmo:42044:1,1999-10-01T19:00:00Z,26.1914,-97.0507,2.0,201.9536738,53.01434994,-99999.0,'11111222,11111222,99999999' 
TABS,ioos:station:wmo:42044:1,1999-10-01T19:30:00Z,26.1914,-97.0507,2.0,195.1871129,41.53048037,-99999.0,'11111222,11111222,99999999' 
TABS,ioos:station:wmo:42044:1,1999-10-01T20:00:00Z,26.1914,-97.0507,2.0,202.5544607,41.94848865,-99999.0,'11111222,11111222,99999999' 
TABS,ioos:station:wmo:42044:1,1999-10-01T20:30:00Z,26.1914,-97.0507,2.0,211.9485544,46.18625012,-99999.0,'11111222,11111222,99999999' 
TABS,ioos:station:wmo:42044:1,1999-10-01T21:00:00Z,26.1914,-97.0507,2.0,197.1940416,36.80489098,-99999.0,'11111222,11111222,99999999' 
TABS,ioos:station:wmo:42044:1,1999-10-01T21:30:00Z,26.1914,-97.0507,2.0,199.0095487,42.55058754,-99999.0,'11111222,11111222,99999999' 
TABS,ioos:station:wmo:42044:1,1999-10-01T22:00:00Z,26.1914,-97.0507,2.0,207.5770075,41.51684477,-99999.0,'11111222,11111222,99999999' 
TABS,ioos:station:wmo:42044:1,1999-10-01T22:30:00Z,26.1914,-97.0507,2.0,211.0344113,40.17014439,-99999.0,'11111222,11111222,99999999' 
TABS,ioos:station:wmo:42044:1,1999-10-01T23:00:00Z,26.1914,-97.0507,2.0,212.2817038,40.18074788,-99999.0,'11111222,11111222,99999999' 
TABS,ioos:station:wmo:42044:1,1999-10-01T23:30:00Z,26.1914,-97.0507,2.0,215.1174896,38.06979905,-99999.0,'11111222,11111222,99999999' 
TABS,ioos:station:wmo:42044:1,1999-10-02T00:00:00Z,26.1914,-97.0507,2.0,232.2139295,42.79346679,-99999.0,'11111222,11111222,99999999' 
TABS,ioos:station:wmo:42044:1,1999-10-02T00:30:00Z,26.1914,-97.0507,2.0,222.0906899,37.34092929,-99999.0,'11111222,11111222,99999999' 
TABS,ioos:station:wmo:42044:1,1999-10-02T01:00:00Z,26.1914,-97.0507,2.0,223.6382107,35.41483446,-99999.0,'11111222,11111222,99999999' 
TABS,ioos:station:wmo:42044:1,1999-10-02T01:30:00Z,26.1914,-97.0507,2.0,223.0354843,33.83372578,-99999.0,'11111222,11111222,99999999' 
TABS,ioos:station:wmo:42044:1,1999-10-02T02:00:00Z,26.1914,-97.0507,2.0,222.8759588,34.15550468,-99999.0,'11111222,11111222,99999999' 
TABS,ioos:station:wmo:42044:1,1999-10-02T02:30:00Z,26.1914,-97.0507,2.0,225.3842131,31.60838496,-99999.0,'11111222,11111222,99999999' 
TABS,ioos:station:wmo:42044:1,1999-10-02T03:00:00Z,26.1914,-97.0507,2.0,224.5786068,28.86487831,-99999.0,'11111222,11111222,99999999' 
TABS,ioos:station:wmo:42044:1,1999-10-02T03:30:00Z,26.1914,-97.0507,2.0,221.949931,27.64460164,-99999.0,'11111222,11111222,99999999' 
TABS,ioos:station:wmo:42044:1,1999-10-02T04:00:00Z,26.1914,-97.0507,2.0,224.3310122,26.65974118,-99999.0,'11111222,11111222,99999999' 
TABS,ioos:station:wmo:42044:1,1999-10-02T04:30:00Z,26.1914,-97.0507,2.0,230.1012295,23.69709687,-99999.0,'11111222,11111222,99999999' 
TABS,ioos:station:wmo:42044:1,1999-10-02T05:00:00Z,26.1914,-97.0507,2.0,231.0980397,21.83172462,-99999.0,'11111222,11111222,99999999' 
TABS,ioos:station:wmo:42044:1,1999-10-02T05:30:00Z,26.1914,-97.0507,2.0,234.0330274,20.8065855,-99999.0,'11111222,11111222,99999999' 
TABS,ioos:station:wmo:42044:1,1999-10-02T06:00:00Z,26.1914,-97.0507,2.0,234.4654499,19.21922215,-99999.0,'11111222,11111222,99999999' 
TABS,ioos:station:wmo:42044:1,1999-10-02T06:30:00Z,26.1914,-97.0507,2.0,236.4462931,18.59915052,-99999.0,'11111222,11111222,99999999' 
TABS,ioos:station:wmo:42044:1,1999-10-02T07:00:00Z,26.1914,-97.0507,2.0,238.6873149,16.91350348,-99999.0,'11111222,11111222,99999999' 
TABS,ioos:station:wmo:42044:1,1999-10-02T07:30:00Z,26.1914,-97.0507,2.0,240.2502172,15.61845383,-99999.0,'11111222,11111222,99999999' 
TABS,ioos:station:wmo:42044:1,1999-10-02T08:00:00Z,26.1914,-97.0507,2.0,241.5829666,14.39437737,-99999.0,'11111222,11111222,99999999' 
TABS,ioos:station:wmo:42044:1,1999-10-02T08:30:00Z,26.1914,-97.0507,2.0,236.9333615,15.28566976,-99999.0,'11111222,11111222,99999999' 
TABS,ioos:station:wmo:42044:1,1999-10-02T09:00:00Z,26.1914,-97.0507,2.0,236.3224542,12.35317368,-99999.0,'11111222,11111222,99999999' 
TABS,ioos:station:wmo:42044:1,1999-10-02T09:30:00Z,26.1914,-97.0507,2.0,247.9191855,10.29507164,-99999.0,'11111222,11111222,99999999' 
TABS,ioos:station:wmo:42044:1,1999-10-02T10:00:00Z,26.1914,-97.0507,2.0,243.465361,8.327118349,-99999.0,'11133222,11111222,99999999' 
TABS,ioos:station:wmo:42044:1,1999-10-02T10:30:00Z,26.1914,-97.0507,2.0,249.8520248,9.522709698,-99999.0,'11133222,11111222,99999999' 
TABS,ioos:station:wmo:42044:1,1999-10-02T11:00:00Z,26.1914,-97.0507,2.0,234.843839,8.023590219,-99999.0,'11133222,11111222,99999999' 
TABS,ioos:station:wmo:42044:1,1999-10-02T11:30:00Z,26.1914,-97.0507,2.0,234.5914293,8.232678786,-99999.0,'11133222,11111222,99999999' 
TABS,ioos:station:wmo:42044:1,1999-10-02T12:00:00Z,26.1914,-97.0507,2.0,239.6325585,7.081560562,-99999.0,'11133222,11111222,99999999' 
TABS,ioos:station:wmo:42044:1,1999-10-02T12:30:00Z,26.1914,-97.0507,2.0,239.0735812,7.82205216,-99999.0,'11133222,11111222,99999999' 
TABS,ioos:station:wmo:42044:1,1999-10-02T13:00:00Z,26.1914,-97.0507,2.0,221.1087303,7.711095901,-99999.0,'11133222,11111222,99999999' 
TABS,ioos:station:wmo:42044:1,1999-10-02T13:30:00Z,26.1914,-97.0507,2.0,148.5446375,17.99429354,-99999.0,'11111222,11111222,99999999' 
TABS,ioos:station:wmo:42044:1,1999-10-02T14:00:00Z,26.1914,-97.0507,2.0,255.6352922,25.83774371,-99999.0,'11111222,11111222,99999999' 
TABS,ioos:station:wmo:42044:1,1999-10-02T14:30:00Z,26.1914,-97.0507,2.0,202.7264826,11.95848235,-99999.0,'11111222,11111222,99999999' 
TABS,ioos:station:wmo:42044:1,1999-10-02T15:00:00Z,26.1914,-97.0507,2.0,215.0527914,20.75443326,-99999.0,'11111222,11111222,99999999' 
TABS,ioos:station:wmo:42044:1,1999-10-02T15:30:00Z,26.1914,-97.0507,2.0,214.4926141,20.78388318,-99999.0,'11111222,11111222,99999999' 
TABS,ioos:station:wmo:42044:1,1999-10-02T16:00:00Z,26.1914,-97.0507,2.0,213.7926429,20.08295297,-99999.0,'11111222,11111222,99999999' 
TABS,ioos:station:wmo:42044:1,1999-10-02T16:30:00Z,26.1914,-97.0507,2.0,210.10523,20.49466516,-99999.0,'11111222,11111222,99999999' 
TABS,ioos:station:wmo:42044:1,1999-10-02T17:00:00Z,26.1914,-97.0507,2.0,247.3642408,34.0638474,-99999.0,'11111222,11111222,99999999' 
TABS,ioos:station:wmo:42044:1,1999-10-02T17:30:00Z,26.1914,-97.0507,2.0,215.7113507,17.61159845,-99999.0,'11111222,11111222,99999999' 
TABS,ioos:station:wmo:42044:1,1999-10-02T18:00:00Z,26.1914,-97.0507,2.0,259.5280861,41.81643696,-99999.0,'11111222,11111222,99999999' 
TABS,ioos:station:wmo:42044:1,1999-10-02T18:30:00Z,26.1914,-97.0507,2.0,201.0548713,18.67696442,-99999.0,'11111222,11111222,99999999' 
TABS,ioos:station:wmo:42044:1,1999-10-02T19:00:00Z,26.1914,-97.0507,2.0,236.9977473,20.78334189,-99999.0,'11111222,11111222,99999999' 
TABS,ioos:station:wmo:42044:1,1999-10-02T19:30:00Z,26.1914,-97.0507,2.0,218.8042784,18.54256994,-99999.0,'11111222,11111222,99999999' 
TABS,ioos:station:wmo:42044:1,1999-10-02T20:00:00Z,26.1914,-97.0507,2.0,261.4376168,39.02491768,-99999.0,'11111222,11111222,99999999' 
TABS,ioos:station:wmo:42044:1,1999-10-02T20:30:00Z,26.1914,-97.0507,2.0,227.0075574,21.19085888,-99999.0,'11111222,11111222,99999999' 
TABS,ioos:station:wmo:42044:1,1999-10-02T21:00:00Z,26.1914,-97.0507,2.0,240.5305298,22.42077831,-99999.0,'11111222,11111222,99999999' 
TABS,ioos:station:wmo:42044:1,1999-10-02T21:30:00Z,26.1914,-97.0507,2.0,227.5120272,21.61581828,-99999.0,'11111222,11111222,99999999' 
TABS,ioos:station:wmo:42044:1,1999-10-02T22:00:00Z,26.1914,-97.0507,2.0,221.4014751,18.47777043,-99999.0,'11111222,11111222,99999999' 
TABS,ioos:station:wmo:42044:1,1999-10-02T22:30:00Z,26.1914,-97.0507,2.0,237.2857167,24.25778638,-99999.0,'11111222,11111222,99999999' 
TABS,ioos:station:wmo:42044:1,1999-10-02T23:00:00Z,26.1914,-97.0507,2.0,251.833665,29.63719285,-99999.0,'11111222,11111222,99999999' 
TABS,ioos:station:wmo:42044:1,1999-10-02T23:30:00Z,26.1914,-97.0507,2.0,244.9474077,22.52952951,-99999.0,'11111222,11111222,99999999' 
TABS,ioos:station:wmo:42044:1,1999-10-03T00:00:00Z,26.1914,-97.0507,2.0,244.1369116,21.52600753,-99999.0,'11111222,11111222,99999999' 
TABS,ioos:station:wmo:42044:1,1999-10-03T00:30:00Z,26.1914,-97.0507,2.0,246.0428108,20.53943767,-99999.0,'11111222,11111222,99999999' 
TABS,ioos:station:wmo:42044:1,1999-10-03T01:00:00Z,26.1914,-97.0507,2.0,249.2535473,19.76133599,-99999.0,'11111222,11111222,99999999' 
TABS,ioos:station:wmo:42044:1,1999-10-03T01:30:00Z,26.1914,-97.0507,2.0,250.0063139,19.18631022,-99999.0,'11111222,11111222,99999999' 
TABS,ioos:station:wmo:42044:1,1999-10-03T02:00:00Z,26.1914,-97.0507,2.0,255.8453792,17.66633239,-99999.0,'11111222,11111222,99999999' 
TABS,ioos:station:wmo:42044:1,1999-10-03T02:30:00Z,26.1914,-97.0507,2.0,249.9668153,18.71214846,-99999.0,'11111222,11111222,99999999' 
TABS,ioos:station:wmo:42044:1,1999-10-03T03:00:00Z,26.1914,-97.0507,2.0,257.1192981,18.03376833,-99999.0,'11111222,11111222,99999999' 
TABS,ioos:station:wmo:42044:1,1999-10-03T03:30:00Z,26.1914,-97.0507,2.0,253.9789985,16.74014636,-99999.0,'11111222,11111222,99999999' 
TABS,ioos:station:wmo:42044:1,1999-10-03T04:00:00Z,26.1914,-97.0507,2.0,257.106704,16.04450062,-99999.0,'11111222,11111222,99999999' 
TABS,ioos:station:wmo:42044:1,1999-10-03T04:30:00Z,26.1914,-97.0507,2.0,256.5038774,15.94015056,-99999.0,'11111222,11111222,99999999' 
TABS,ioos:station:wmo:42044:1,1999-10-03T05:00:00Z,26.1914,-97.0507,2.0,262.3530153,14.57964677,-99999.0,'11111222,11111222,99999999' 
TABS,ioos:station:wmo:42044:1,1999-10-03T05:30:00Z,26.1914,-97.0507,2.0,265.2917378,14.4989172,-99999.0,'11111222,11111222,99999999' 
TABS,ioos:station:wmo:42044:1,1999-10-03T06:00:00Z,26.1914,-97.0507,2.0,253.5533066,13.66927211,-99999.0,'11111222,11111222,99999999' 
TABS,ioos:station:wmo:42044:1,1999-10-03T06:30:00Z,26.1914,-97.0507,2.0,257.8183236,13.41197226,-99999.0,'11111222,11111222,99999999' 
TABS,ioos:station:wmo:42044:1,1999-10-03T07:00:00Z,26.1914,-97.0507,2.0,252.354908,13.75721629,-99999.0,'11111222,11111222,99999999' 
TABS,ioos:station:wmo:42044:1,1999-10-03T07:30:00Z,26.1914,-97.0507,2.0,249.9511382,13.47664647,-99999.0,'11111222,11111222,99999999' 
TABS,ioos:station:wmo:42044:1,1999-10-03T08:00:00Z,26.1914,-97.0507,2.0,246.5722409,13.48133895,-99999.0,'11111222,11111222,99999999' 
TABS,ioos:station:wmo:42044:1,1999-10-03T08:30:00Z,26.1914,-97.0507,2.0,238.4335176,14.5181576,-99999.0,'11111222,11111222,99999999' 
TABS,ioos:station:wmo:42044:1,1999-10-03T09:00:00Z,26.1914,-97.0507,2.0,245.0488912,14.12861281,-99999.0,'11111222,11111222,99999999' 
TABS,ioos:station:wmo:42044:1,1999-10-03T09:30:00Z,26.1914,-97.0507,2.0,241.5829666,14.39437737,-99999.0,'11111222,11111222,99999999' 
TABS,ioos:station:wmo:42044:1,1999-10-03T10:00:00Z,26.1914,-97.0507,2.0,236.3307171,15.04347034,-99999.0,'11111222,11111222,99999999' 
TABS,ioos:station:wmo:42044:1,1999-10-03T10:30:00Z,26.1914,-97.0507,2.0,241.8645143,14.52647927,-99999.0,'11111222,11111222,99999999' 
TABS,ioos:station:wmo:42044:1,1999-10-03T11:00:00Z,26.1914,-97.0507,2.0,242.6079223,14.25865351,-99999.0,'11111222,11111222,99999999' 
TABS,ioos:station:wmo:42044:1,1999-10-03T11:30:00Z,26.1914,-97.0507,2.0,237.6165304,14.47034554,-99999.0,'11111222,11111222,99999999' 
TABS,ioos:station:wmo:42044:1,1999-10-03T12:00:00Z,26.1914,-97.0507,2.0,238.7406975,14.64617356,-99999.0,'11111222,11111222,99999999' 
TABS,ioos:station:wmo:42044:1,1999-10-03T12:30:00Z,26.1914,-97.0507,2.0,237.1489438,14.01045681,-99999.0,'11111222,11111222,99999999' 
TABS,ioos:station:wmo:42044:1,1999-10-03T13:00:00Z,26.1914,-97.0507,2.0,225.4536815,13.38595159,-99999.0,'11111222,11111222,99999999' 
TABS,ioos:station:wmo:42044:1,1999-10-03T13:30:00Z,26.1914,-97.0507,2.0,167.9825658,18.58734247,-99999.0,'11111222,11111222,99999999' 
TABS,ioos:station:wmo:42044:1,1999-10-03T14:00:00Z,26.1914,-97.0507,2.0,203.9622225,14.67479812,-99999.0,'11111222,11111222,99999999' 
TABS,ioos:station:wmo:42044:1,1999-10-03T14:30:00Z,26.1914,-97.0507,2.0,226.5118356,15.80934217,-99999.0,'11111222,11111222,99999999' 
TABS,ioos:station:wmo:42044:1,1999-10-03T15:00:00Z,26.1914,-97.0507,2.0,236.1816781,17.392668,-99999.0,'11111222,11111222,99999999' 
TABS,ioos:station:wmo:42044:1,1999-10-03T15:30:00Z,26.1914,-97.0507,2.0,214.9917279,18.18776787,-99999.0,'11111222,11111222,99999999' 
TABS,ioos:station:wmo:42044:1,1999-10-03T16:00:00Z,26.1914,-97.0507,2.0,217.265001,17.96842787,-99999.0,'11111222,11111222,99999999' 
TABS,ioos:station:wmo:42044:1,1999-10-03T16:30:00Z,26.1914,-97.0507,2.0,220.3915244,18.3947411,-99999.0,'11111222,11111222,99999999' 
TABS,ioos:station:wmo:42044:1,1999-10-03T17:00:00Z,26.1914,-97.0507,2.0,247.8959426,31.6782086,-99999.0,'11111222,11111222,99999999' 
TABS,ioos:station:wmo:42044:1,1999-10-03T17:30:00Z,26.1914,-97.0507,2.0,253.7120738,37.72400429,-99999.0,'11111222,11111222,99999999' 
TABS,ioos:station:wmo:42044:1,1999-10-03T18:00:00Z,26.1914,-97.0507,2.0,227.1147554,19.925702,-99999.0,'11111222,11111222,99999999' 
TABS,ioos:station:wmo:42044:1,1999-10-03T18:30:00Z,26.1914,-97.0507,2.0,231.5979009,25.66117106,-99999.0,'11111222,11111222,99999999' 
TABS,ioos:station:wmo:42044:1,1999-10-03T19:00:00Z,26.1914,-97.0507,2.0,241.6592867,32.33564751,-99999.0,'11111222,11111222,99999999' 
TABS,ioos:station:wmo:42044:1,1999-10-03T19:30:00Z,26.1914,-97.0507,2.0,223.7680676,24.34423957,-99999.0,'11111222,11111222,99999999' 
TABS,ioos:station:wmo:42044:1,1999-10-03T20:00:00Z,26.1914,-97.0507,2.0,234.4335438,32.78648807,-99999.0,'11111222,11111222,99999999' 
TABS,ioos:station:wmo:42044:1,1999-10-03T20:30:00Z,26.1914,-97.0507,2.0,212.4765599,23.31650274,-99999.0,'11111222,11111222,99999999' 
TABS,ioos:station:wmo:42044:1,1999-10-03T21:00:00Z,26.1914,-97.0507,2.0,206.7314737,21.52000929,-99999.0,'11111222,11111222,99999999' 
TABS,ioos:station:wmo:42044:1,1999-10-03T21:30:00Z,26.1914,-97.0507,2.0,208.9453855,24.00925863,-99999.0,'11111222,11111222,99999999' 
TABS,ioos:station:wmo:42044:1,1999-10-03T22:00:00Z,26.1914,-97.0507,2.0,215.1825275,25.3389838,-99999.0,'11111222,11111222,99999999' 
TABS,ioos:station:wmo:42044:1,1999-10-03T22:30:00Z,26.1914,-97.0507,2.0,214.9831244,27.2787848,-99999.0,'11111222,11111222,99999999' 
TABS,ioos:station:wmo:42044:1,1999-10-03T23:00:00Z,26.1914,-97.0507,2.0,205.2503864,23.3954269,-99999.0,'11111222,11111222,99999999' 
TABS,ioos:station:wmo:42044:1,1999-10-03T23:30:00Z,26.1914,-97.0507,2.0,203.9295539,23.14989633,-99999.0,'11111222,11111222,99999999' 
TABS,ioos:station:wmo:42044:1,1999-10-04T00:00:00Z,26.1914,-97.0507,2.0,219.3309685,29.851541,-99999.0,'11111222,11111222,99999999' 
TABS,ioos:station:wmo:42044:1,1999-10-04T00:30:00Z,26.1914,-97.0507,2.0,213.6015039,28.80284187,-99999.0,'11111222,11111222,99999999' 
TABS,ioos:station:wmo:42044:1,1999-10-04T01:00:00Z,26.1914,-97.0507,2.0,212.1016021,28.32000353,-99999.0,'11111222,11111222,99999999' 
TABS,ioos:station:wmo:42044:1,1999-10-04T01:30:00Z,26.1914,-97.0507,2.0,213.9365096,29.62681218,-99999.0,'11111222,11111222,99999999' 
TABS,ioos:station:wmo:42044:1,1999-10-04T02:00:00Z,26.1914,-97.0507,2.0,213.7688457,28.13719425,-99999.0,'11111222,11111222,99999999' 
TABS,ioos:station:wmo:42044:1,1999-10-04T02:30:00Z,26.1914,-97.0507,2.0,213.0260671,28.97116152,-99999.0,'11111222,11111222,99999999' 
TABS,ioos:station:wmo:42044:1,1999-10-04T03:00:00Z,26.1914,-97.0507,2.0,212.1967072,28.52682247,-99999.0,'11111222,11111222,99999999' 
TABS,ioos:station:wmo:42044:1,1999-10-04T03:30:00Z,26.1914,-97.0507,2.0,209.7471732,27.63121785,-99999.0,'11111222,11111222,99999999' 
TABS,ioos:station:wmo:42044:1,1999-10-04T04:00:00Z,26.1914,-97.0507,2.0,212.8504248,28.02091362,-99999.0,'11111222,11111222,99999999' 
TABS,ioos:station:wmo:42044:1,1999-10-04T04:30:00Z,26.1914,-97.0507,2.0,212.570344,27.39909853,-99999.0,'11111222,11111222,99999999' 
TABS,ioos:station:wmo:42044:1,1999-10-04T05:00:00Z,26.1914,-97.0507,2.0,211.6559446,26.96154669,-99999.0,'11111222,11111222,99999999' 
TABS,ioos:station:wmo:42044:1,1999-10-04T05:30:00Z,26.1914,-97.0507,2.0,211.8717709,25.96471837,-99999.0,'11111222,11111222,99999999' 
TABS,ioos:station:wmo:42044:1,1999-10-04T06:00:00Z,26.1914,-97.0507,2.0,209.9416621,25.96558492,-99999.0,'11111222,11111222,99999999' 
TABS,ioos:station:wmo:42044:1,1999-10-04T06:30:00Z,26.1914,-97.0507,2.0,210.2622871,26.90671292,-99999.0,'11111222,11111222,99999999' 
TABS,ioos:station:wmo:42044:1,1999-10-04T07:00:00Z,26.1914,-97.0507,2.0,206.8598609,26.05053742,-99999.0,'11111222,11111222,99999999' 
TABS,ioos:station:wmo:42044:1,1999-10-04T07:30:00Z,26.1914,-97.0507,2.0,206.4176154,26.11736013,-99999.0,'11111222,11111222,99999999' 
TABS,ioos:station:wmo:42044:1,1999-10-04T08:00:00Z,26.1914,-97.0507,2.0,203.9309963,26.08221616,-99999.0,'11111222,11111222,99999999' 
TABS,ioos:station:wmo:42044:1,1999-10-04T08:30:00Z,26.1914,-97.0507,2.0,203.2381698,26.43461746,-99999.0,'11111222,11111222,99999999' 
TABS,ioos:station:wmo:42044:1,1999-10-04T09:00:00Z,26.1914,-97.0507,2.0,204.8820326,27.26048055,-99999.0,'11111222,11111222,99999999' 
TABS,ioos:station:wmo:42044:1,1999-10-04T09:30:00Z,26.1914,-97.0507,2.0,199.6336224,27.0528834,-99999.0,'11111222,11111222,99999999' 
TABS,ioos:station:wmo:42044:1,1999-10-04T10:00:00Z,26.1914,-97.0507,2.0,201.0505763,27.78426353,-99999.0,'11111222,11111222,99999999' 
TABS,ioos:station:wmo:42044:1,1999-10-04T10:30:00Z,26.1914,-97.0507,2.0,199.0226272,27.42787815,-99999.0,'11111222,11111222,99999999' 
TABS,ioos:station:wmo:42044:1,1999-10-04T11:00:00Z,26.1914,-97.0507,2.0,199.682142,28.32490953,-99999.0,'11111222,11111222,99999999' 
TABS,ioos:station:wmo:42044:1,1999-10-04T11:30:00Z,26.1914,-97.0507,2.0,198.8082108,29.59006083,-99999.0,'11111222,11111222,99999999' 
TABS,ioos:station:wmo:42044:1,1999-10-04T12:00:00Z,26.1914,-97.0507,2.0,199.8599044,30.25970919,-99999.0,'11111222,11111222,99999999' 
TABS,ioos:station:wmo:42044:1,1999-10-04T12:30:00Z,26.1914,-97.0507,2.0,198.3432783,31.71136074,-99999.0,'11111222,11111222,99999999' 
TABS,ioos:station:wmo:42044:1,1999-10-04T13:00:00Z,26.1914,-97.0507,2.0,197.4256786,32.32348991,-99999.0,'11111222,11111222,99999999' 
TABS,ioos:station:wmo:42044:1,1999-10-04T13:30:00Z,26.1914,-97.0507,2.0,194.8305784,33.7545034,-99999.0,'11111222,11111222,99999999' 
TABS,ioos:station:wmo:42044:1,1999-10-04T14:00:00Z,26.1914,-97.0507,2.0,196.8154425,33.46077256,-99999.0,'11111222,11111222,99999999' 
TABS,ioos:station:wmo:42044:1,1999-10-04T14:30:00Z,26.1914,-97.0507,2.0,205.9670127,44.58067743,-99999.0,'11111222,11111222,99999999' 
TABS,ioos:station:wmo:42044:1,1999-10-04T15:00:00Z,26.1914,-97.0507,2.0,194.2742856,33.82431078,-99999.0,'11111222,11111222,99999999' 
TABS,ioos:station:wmo:42044:1,1999-10-04T15:30:00Z,26.1914,-97.0507,2.0,197.2107181,37.75039735,-99999.0,'11111222,11111222,99999999' 
TABS,ioos:station:wmo:42044:1,1999-10-04T16:00:00Z,26.1914,-97.0507,2.0,184.6797408,34.68564256,-99999.0,'11111222,11111222,99999999' 